Flag for France Weather past 2 weeks in Périgueux, France

Now
50 °F

Passing clouds.


Feels Like: 47 °F
Forecast: 46 / 50 °F
Wind: 7 mph from West

Location: Bergerac Airport

Current Time: Jan 29, 2015 at 12:00:34 AM

Latest Report: Jan 28, 2015 at 11:30 PM


Visibility: N/A

Pressure: 29.95 "Hg

Humidity: 94%

Dew point: 48 °F

Location of PérigueuxLocation

Historic Weather in Périgueux — Graph

°F

Périgueux temperature yesterday

Maximum temperature yesterday: 52 °F (at 10:00 PM)
Minimum temperature yesterday: 37 °F (at 6:00 AM)
Average temperature yesterday: 44 °F

Past Weeks' High & Low Weather Summary

 TemperatureHumidityPressure
High57 °F (Jan 14, 1:30 PM)100% (Jan 17, 1:00 AM)30.57 "Hg (Jan 17, 1:00 AM)
Low25 °F (Jan 21, 12:30 AM)59% (Jan 15, 5:00 PM)29.62 "Hg (Jan 21, 3:30 PM)
Average40 °F87%30.10 "Hg
* Reported Jan 13 11:00 PM — Jan 28 11:00 PM, Périgueux, Weather by CustomWeather, © 2014

Note: Actual official high and low records may vary slightly from our data, if they occured in-between our weather recording intervals... More about our weather records

Advertising

Périgueux weather history for previous 24 hours

 ConditionsComfort  
Time TempWeatherWind HumidityBarometerVisibility
11:00 PM
Jan 28
50 °FMostly cloudy.7 mph100%29.98 "HgN/A
10:30 PM52 °FMostly cloudy.10 mph94%29.98 "HgN/A
10:00 PM52 °FLight rain. Low clouds.14 mph94%29.98 "Hg6 mi
9:30 PM50 °FLow clouds.12 mph94%29.98 "Hg6 mi
9:00 PM50 °FLight rain. Mostly cloudy.12 mph94%29.98 "Hg4 mi
8:30 PM48 °FDrizzle. Mostly cloudy.12 mph100%30.01 "HgN/A
8:00 PM48 °FDrizzle. Mostly cloudy.12 mph94%30.01 "Hg5 mi
7:30 PM48 °FDrizzle. Mostly cloudy.13 mph94%30.04 "HgN/A
7:00 PM48 °FLight rain. Overcast.14 mph94%30.04 "HgN/A
6:30 PM48 °FMostly cloudy.10 mph94%30.04 "HgN/A
6:00 PM48 °FLight rain. Overcast.7 mph87%30.07 "HgN/A
5:30 PM48 °FLow clouds.7 mph94%30.07 "HgN/A
5:00 PM48 °FDrizzle. Fog.7 mph87%30.09 "Hg3 mi
4:30 PM48 °FOvercast.6 mph87%30.09 "HgN/A
4:00 PM48 °FOvercast.10 mph87%30.09 "HgN/A
3:30 PM48 °FLight rain. Broken clouds.9 mph82%30.12 "HgN/A
3:00 PM48 °FMore clouds than sun.8 mph82%30.12 "HgN/A
2:30 PM48 °FMostly cloudy.9 mph82%30.15 "HgN/A
2:00 PM48 °FMostly cloudy.8 mph82%30.18 "HgN/A
1:30 PM48 °FOvercast.6 mph82%30.21 "HgN/A
1:00 PM45 °FOvercast.5 mph87%30.21 "HgN/A
12:30 PM45 °FLight rain. Mostly cloudy.7 mph81%30.21 "HgN/A
12:00 PM45 °FMostly cloudy.3 mph81%30.27 "HgN/A
11:30 AM43 °FLight rain. Overcast.5 mph87%30.27 "Hg6 mi
11:00 AM43 °FLight rain. Mostly cloudy.3 mph87%30.27 "HgN/A
10:30 AM43 °FLight rain. More clouds than sun.5 mph87%30.27 "HgN/A
10:00 AM43 °FMore clouds than sun.7 mph81%30.27 "HgN/A
9:30 AM43 °FPartly sunny.2 mph87%30.27 "HgN/A
9:00 AM39 °FFog.No wind93%30.27 "Hg3 mi
8:30 AM39 °FMostly cloudy.3 mph87%30.27 "Hg5 mi
8:00 AM39 °FLight rain. Overcast.3 mph93%30.27 "HgN/A
7:30 AM39 °FOvercast.1 mph93%30.30 "HgN/A
7:00 AM39 °FOvercast.5 mph93%30.30 "HgN/A
6:30 AM39 °FOvercast.1 mph93%30.30 "Hg5 mi
6:00 AM37 °FOvercast.No wind93%30.30 "Hg5 mi
5:30 AM39 °FOvercast.1 mph93%30.30 "Hg5 mi
5:00 AM39 °FOvercast.No wind93%30.33 "Hg5 mi
4:30 AM39 °FOvercast.No wind93%30.33 "Hg6 mi
4:00 AM39 °FOvercast.1 mph93%30.33 "Hg5 mi
3:30 AM39 °FOvercast.No wind93%30.36 "HgN/A
3:00 AM39 °FClear.No wind93%30.36 "HgN/A
2:30 AM39 °FOvercast.No wind93%30.36 "HgN/A
2:00 AM39 °FOvercast.3 mph93%30.39 "HgN/A
1:30 AM41 °FOvercast.5 mph87%30.39 "HgN/A
1:00 AM41 °FClear.5 mph87%30.39 "HgN/A
12:30 AM41 °FClear.6 mph87%30.39 "HgN/A
12:00 AM41 °FClear.3 mph87%30.42 "HgN/A
Weather by CustomWeather, © 2014

See weather overviewHow to use our weather pages